Powrót do katalogu

STARLINK-11651

AktywnyŁącznośćVLEO
NORAD 63664·PAYLOAD·🇺🇸 United States

Wystrzelony Apr 28, 2025 z Cape Canaveral Space Force Station

Loading…

Następne Przeloty (najbliższe 24 godziny)

TLE

ŚwieżeSource: CelesTrak SupGP

Epoka: Sep 15, 2026, 02:55 UTC

1 63664C 25085A   26258.12201389 -.00096368  00000+0 -74858-3 0  2580
2 63664  43.0008 216.2257 0001443 269.7070 270.0343 15.70883780    17

Śledź STARLINK-11651 w czasie rzeczywistym z AllMySat

Download on the App Store